Flag for Mexico Weather past 2 weeks in Ojinaga, Chihuahua, Mexico

Now
73 °F

Sunny.


Feels Like: 76 °F
Forecast: 71 / 100 °F
Wind: 6 mph from South

Location: Marfa Municipal Airport

Current Time: Sep 5, 2015 at 9:20:39 AM

Latest Report: Sep 5, 2015 at 8:55 AM


Visibility: 10 mi

Pressure: 30.17 "Hg (27.55 "Hg at 788m altitude)

Humidity: 61%

Dew point: 59 °F

Location of OjinagaLocation

Historic Weather in Ojinaga — Graph

°F

Ojinaga temperature yesterday

Maximum temperature yesterday: 90 °F (at 2:35 PM)
Minimum temperature yesterday: 54 °F (at 5:35 AM)
Average temperature yesterday: 73 °F

Past Weeks' High & Low Weather Summary

 TemperatureHumidityPressure
High93 °F (Aug 28, 2:55 PM)94% (Aug 21, 11:55 PM)30.34 "Hg (Aug 21, 11:55 PM)
Low52 °F (Aug 31, 4:55 AM)15% (Aug 31, 3:15 PM)30.02 "Hg (Sep 3, 5:35 PM)
Average72 °F55%30.18 "Hg
* Reported Aug 21 8:35 AM — Sep 5 8:15 AM, Ojinaga, Weather by CustomWeather, © 2015

Note: Actual official high and low records may vary slightly from our data, if they occured in-between our weather recording intervals... More about our weather records

Advertising

Ojinaga weather history for previous 24 hours

 ConditionsComfort  
Time TempWeatherWind HumidityBarometerVisibility
8:15 AM
Sat, Sep 5
72 °FSunny.3 mph65%30.16 "Hg10 mi
7:55 AM68 °FSunny.No wind69%30.15 "Hg10 mi
7:35 AM64 °FSunny.5 mph73%30.15 "Hg10 mi
7:15 AM61 °FClear.6 mph77%30.15 "Hg10 mi
6:55 AM57 °FClear.5 mph88%30.14 "Hg10 mi
6:35 AM59 °FClear.7 mph82%30.13 "Hg10 mi
6:15 AM55 °FClear.6 mph88%30.13 "Hg10 mi
5:55 AM57 °FClear.3 mph82%30.12 "Hg10 mi
5:35 AM57 °FClear.7 mph82%30.12 "Hg10 mi
5:15 AM59 °FClear.5 mph77%30.12 "Hg10 mi
4:55 AM59 °FClear.5 mph82%30.11 "Hg10 mi
4:35 AM57 °FClear.7 mph82%30.11 "Hg10 mi
4:15 AM59 °FClear.No wind77%30.11 "Hg10 mi
3:55 AM59 °FClear.7 mph77%30.10 "Hg10 mi
3:35 AM57 °FClear.6 mph82%30.10 "Hg10 mi
3:15 AM59 °FClear.3 mph72%30.10 "Hg10 mi
2:55 AM61 °FClear.5 mph72%30.09 "Hg10 mi
2:35 AM61 °FClear.3 mph72%30.09 "Hg10 mi
2:15 AM61 °FClear.No wind72%30.09 "Hg10 mi
1:55 AM63 °FClear.No wind68%30.09 "Hg10 mi
1:35 AM63 °FClear.8 mph68%30.09 "Hg10 mi
1:15 AM63 °FClear.8 mph64%30.10 "Hg10 mi
12:55 AM64 °FClear.8 mph60%30.10 "Hg10 mi
12:35 AM66 °FClear.6 mph64%30.10 "Hg10 mi
12:15 AM66 °FClear.3 mph64%30.10 "Hg10 mi
11:55 PM
Fri, Sep 4
72 °FClear.5 mph57%30.10 "Hg10 mi
11:35 PM70 °FClear.6 mph57%30.10 "Hg10 mi
11:15 PM68 °FClear.6 mph56%30.10 "Hg10 mi
10:55 PM70 °FClear.5 mph53%30.10 "Hg10 mi
10:35 PM70 °FClear.5 mph53%30.11 "Hg10 mi
10:15 PM72 °FClear.3 mph44%30.11 "Hg10 mi
9:55 PM72 °FClear.5 mph44%30.11 "Hg10 mi
9:35 PM73 °FClear.6 mph41%30.10 "Hg10 mi
9:15 PM73 °FPassing clouds.7 mph41%30.09 "Hg10 mi
8:55 PM75 °FPassing clouds.8 mph39%30.08 "Hg10 mi
8:35 PM79 °FPassing clouds.8 mph34%30.07 "Hg10 mi
7:55 PM81 °FPartly sunny.8 mph34%30.05 "Hg10 mi
7:35 PM82 °FOvercast.9 mph32%30.05 "Hg10 mi
7:15 PM84 °FOvercast.13 mph29%30.04 "Hg10 mi
6:55 PM84 °FOvercast.9 mph29%30.04 "Hg10 mi
6:35 PM86 °FMostly cloudy.9 mph25%30.04 "Hg10 mi
6:15 PM88 °FBroken clouds.12 mph24%30.04 "Hg10 mi
5:55 PM88 °FPartly sunny.8 mph24%30.04 "Hg10 mi
5:35 PM90 °FOvercast.12 mph22%30.04 "Hg10 mi
5:15 PM88 °FOvercast.9 mph25%30.04 "Hg10 mi
4:55 PM90 °FOvercast.5 mph24%30.04 "Hg10 mi
4:35 PM88 °FBroken clouds.No wind24%30.04 "Hg9 mi
3:35 PM90 °FSunny.3 mph24%30.05 "Hg10 mi
3:15 PM90 °FSunny.3 mph24%30.06 "Hg10 mi
2:55 PM90 °FSunny.7 mph24%30.07 "Hg10 mi
2:35 PM90 °FSunny.8 mph24%30.07 "Hg10 mi
2:15 PM88 °FSunny.12 mph25%30.08 "Hg10 mi
1:55 PM88 °FSunny.10 mph25%30.08 "Hg10 mi
1:35 PM88 °FSunny.7 mph27%30.09 "Hg10 mi
1:15 PM86 °FSunny.9 mph29%30.10 "Hg10 mi
12:55 PM84 °FSunny.No wind33%30.10 "Hg10 mi
12:35 PM86 °FSunny.5 mph31%30.10 "Hg10 mi
12:15 PM84 °FSunny.6 mph31%30.11 "Hg10 mi
11:55 AM84 °FSunny.7 mph33%30.12 "Hg10 mi
11:35 AM84 °FSunny.9 mph35%30.13 "Hg10 mi
11:15 AM81 °FSunny.6 mph39%30.13 "Hg10 mi
10:55 AM81 °FSunny.7 mph42%30.13 "Hg10 mi
10:35 AM81 °FSunny.8 mph39%30.14 "Hg10 mi
10:15 AM79 °FSunny.9 mph45%30.14 "Hg10 mi
9:55 AM77 °FSunny.8 mph47%30.13 "Hg10 mi
9:35 AM77 °FSunny.9 mph44%30.13 "Hg10 mi
9:15 AM75 °FSunny.6 mph50%30.13 "Hg10 mi
Weather by CustomWeather, © 2015

See weather overviewHow to use our weather pages